#timestamp,LO_Frequency,Hit,StdDev 
1593064815.8,286047005.9,N
1593064835.6,286047005.4,N
1593064855.5,286047003.6,N
1593064875.3,286047004.4,N
1593064895.1,286047001.7,N
1593064915.9,286047001.3,N
1593064935.7,286047004.4,N
1593064955.5,286047004.4,N
1593064975.4,286047004.0,N
1593064995.2,286047002.2,N
1593065015.0,286047002.2,N
1593065046.0,286047001.8,E
1593065055.9,286047001.4,N
1593065075.7,286046998.4,P
1593065095.6,286046999.3,N
1593065115.4,286046998.9,N
1593065135.2,286046998.4,N
1593065155.1,286046998.4,N
1593065156.0,286046998.4,N
1593065175.8,286046999.0,N
1593065195.7,286046996.5,Y
1593065215.5,286046998.6,P
1593065235.3,286047001.0,P
1593065255.2,286047000.7,N
1593065275.0,286047000.6,N
1593065275.9,286047000.6,N
1593065295.8,286047000.6,N
1593065315.6,286047002.6,N
1593065335.4,286047000.1,N
1593065355.3,286047002.3,N
1593065375.1,286047002.1,N
1593065376.0,286047002.1,N
1593065395.8,286047002.1,N
1593065415.7,286047004.3,Y
1593065435.5,286046999.8,P
1593065455.3,286047000.3,N
1593065475.2,286047000.7,N
1593065495.0,286046998.1,Y
1593065495.9,286046998.1,P
1593065515.8,286046996.5,P
1593065535.6,286047001.0,N
1593065555.4,286047000.1,N
1593065575.3,286047002.1,N
1593065595.1,286047005.4,N
1593065615.9,286047007.2,N
1593065635.7,286047009.0,N
1593065655.5,286047009.9,N
1593065675.4,286047009.3,N
1593065695.2,286047010.2,N
1593065715.0,286047009.4,N
1593065715.9,286047009.4,N
1593065735.8,286047007.8,N
1593065755.6,286047008.9,N
1593065775.4,286047007.2,N
1593065795.3,286047007.0,N
1593065815.1,286047008.0,N
1593065835.9,286047009.7,N
1593065855.7,286047014.0,Y
1593065875.5,286047006.9,P
1593065895.4,286047006.9,P
1593065915.2,286047004.9,P
1593065935.1,286047004.8,Y
1593065936.0,286047004.8,P
1593065955.8,286046998.7,N
1593065975.6,286047000.5,N
1593065995.5,286047000.8,N
1593066015.3,286047000.2,N
1593066035.1,286047001.5,N
1593066055.9,286047003.3,N
1593066075.7,286047003.8,N
1593066095.6,286047001.4,N
1593066115.4,286047000.6,N
1593066135.2,286047000.5,N
1593066155.1,286047000.1,N
1593066156.0,286047000.1,N
1593066175.8,286047002.5,N
1593066195.7,286046999.9,N
1593066215.5,286047000.1,N
1593066235.3,286047002.6,N
1593066255.2,286047002.6,N
1593066275.9,286047002.2,N
1593066295.7,286047011.9,Y
1593066315.6,286046999.9,P
1593066335.4,286047000.0,N
1593066355.3,286046998.5,N
1593066375.1,286047000.5,N
1593066376.0,286047000.5,N
1593066395.8,286046998.3,N
1593066415.7,286047000.7,N
1593066435.5,286047000.5,N
1593066455.3,286047000.8,N
1593066475.2,286047000.2,N
1593066495.0,286047000.2,N
1593066495.9,286047000.2,N
1593066515.8,286046998.4,N
1593066535.6,286046998.8,N
1593066555.4,286046996.7,Y
1593066575.3,286046996.9,P
1593066595.1,286046997.5,N
1593066615.8,286046997.4,N
1593066635.7,286046995.0,Y
1593066655.5,286046997.2,P
1593066675.4,286046997.7,P
1593066695.2,286046997.3,P
1593066715.0,286046997.7,Y
1593066715.9,286046997.7,P
1593066735.8,286046999.2,P
1593066755.6,286046998.5,N
1593066775.4,286046999.3,N
1593066795.3,286046997.7,Y
1593066815.1,286046997.0,P
1593066835.9,286046997.5,P
1593066855.7,286046996.0,P
1593066875.5,286046997.0,Y
1593066895.4,286046999.9,P
1593066915.2,286046999.9,N
1593066935.1,286047000.1,N
1593066936.0,286047000.1,N
1593066955.8,286047000.5,N
1593066975.6,286046998.6,N
1593066995.5,286046999.6,N
1593067015.3,286046996.7,Y
1593067035.1,286046997.6,P
1593067055.9,286046999.5,N
1593067075.7,286046994.9,P
1593067095.6,286046995.5,N
1593067115.4,286046997.9,N
1593067135.2,286046997.8,N
1593067155.1,286046995.2,N
1593067156.0,286046995.2,N
1593067175.8,286046994.9,N
1593067195.6,286046999.2,N
1593067215.5,286047000.9,N
1593067235.3,286047001.9,N
1593067255.2,286047002.9,N
1593067275.9,286047005.9,N
1593067295.7,286047004.8,N
1593067315.6,286047007.5,N
1593067335.4,286047006.9,N
1593067355.2,286047006.7,N
1593067375.1,286047006.1,N
1593067376.0,286047006.1,N
1593067395.8,286047008.3,N
1593067415.7,286047008.6,N
1593067435.5,286047006.7,N
1593067455.3,286047008.8,N
1593067475.2,286047006.9,N
1593067495.0,286047006.4,N
1593067495.9,286047006.4,N
1593067515.8,286047009.2,N
1593067535.6,286047008.9,N
1593067555.4,286047007.2,N
1593067575.3,286047007.1,N
1593067595.1,286047005.0,N
1593067615.8,286047007.4,N
1593067635.7,286047007.5,N
1593067655.5,286047004.5,N
1593067675.4,286047004.5,N
1593067695.2,286047005.9,N
1593067715.0,286047007.2,N
1593067715.9,286047007.2,N
1593067735.8,286047006.1,N
1593067755.6,286047007.3,Y
1593067775.4,286047002.8,P
1593067795.3,286047001.2,N
1593067815.1,286046998.1,N
1593067835.9,286046999.4,N
1593067855.7,286046998.9,N
1593067875.5,286046999.2,N
1593067895.4,286047000.7,N
1593067915.2,286047000.4,N
1593067935.0,286046999.4,N
1593067935.9,286046999.4,N
1593067955.8,286046998.6,N
1593067975.6,286046999.6,N
1593067995.5,286046999.4,N
1593068015.3,286046999.3,N
1593068035.1,286046999.4,N
1593068055.9,286046997.0,N
1593068075.7,286046999.3,N
1593068095.5,286046999.3,N
1593068115.4,286046999.0,N
1593068135.2,286046998.8,N
1593068155.1,286047000.7,N
1593068156.0,286047000.7,N
1593068175.8,286046998.6,N
1593068195.6,286046998.2,N
1593068215.5,286046998.9,N
1593068235.3,286046998.9,N
1593068255.1,286046998.9,N
1593068275.9,286046998.4,N
1593068295.7,286046996.5,N
1593068315.6,286046996.8,N
1593068335.4,286046996.7,N
1593068355.2,286046997.6,N
1593068375.1,286046997.5,N
1593068376.0,286046997.5,N
1593068395.8,286046997.5,N
